When you browse on this site, cookies collect data to enhance your experience and personalize the content and advertising you see.
Visit our Privacy Policy to learn more. By continuing to use the site, you agree to this use of cookies and data.
  • In United Kingdom
  • List of Countries
  • For 7 days
  • Water Temperature
  • Satellite Maps
  • Weather Map
  • Weather Widgets
  • user-avatar
    Login

    Hourly Weather Biatris

    Today, 26 May, Sunday

    Time Temperature Precipitation Wind Pressure Humidity
    00:00 +12°C° 0 mm 3 mps 656 mmHg 71%
    01:00 +11°C° 0 mm 3 mps 655 mmHg 74%
    02:00 +12°C° 0 mm 2 mps 655 mmHg 76%
    03:00 +10°C° 0 mm 2 mps 655 mmHg 79%
    04:00 +10°C° 0 mm 2 mps 655 mmHg 83%
    05:00 +9°C° 0 mm 2 mps 655 mmHg 86%
    06:00 +12°C° 0 mm 2 mps 655 mmHg 80%
    07:00 +13°C° 0 mm 2 mps 656 mmHg 74%
    08:00 +14°C° 0 mm 3 mps 656 mmHg 68%
    09:00 +17°C° 0 mm 2 mps 657 mmHg 57%
    10:00 +20°C° 0 mm 2 mps 657 mmHg 47%
    11:00 +24°C° 0 mm 2 mps 658 mmHg 36%
    12:00 +24°C° 0 mm 2 mps 657 mmHg 35%
    13:00 +24°C° 0 mm 2 mps 657 mmHg 33%
    14:00 +25°C° 0 mm 1 mps 656 mmHg 31%
    15:00 +24°C° 0 mm 2 mps 656 mmHg 33%
    16:00 +23°C° 0 mm 2 mps 656 mmHg 36%
    17:00 +20°C° 0 mm 2 mps 655 mmHg 38%
    18:00 +19°C° 0 mm 3 mps 655 mmHg 46%
    19:00 +17°C° 0 mm 3 mps 655 mmHg 54%
    20:00 +15°C° 0 mm 4 mps 655 mmHg 61%
    21:00 +14°C° 0 mm 4 mps 655 mmHg 67%
    22:00 +13°C° 0 mm 3 mps 655 mmHg 73%
    23:00 +12°C° 0 mm 3 mps 655 mmHg 80%

    Tomorrow, 27 May, Monday

    Time Temperature Precipitation Wind Pressure Humidity
    00:00 +11°C° 0 mm 3 mps 655 mmHg 83%
    01:00 +12°C° 0 mm 2 mps 654 mmHg 86%
    02:00 +10°C° 0 mm 2 mps 654 mmHg 89%
    03:00 +10°C° 0 mm 2 mps 654 mmHg 90%
    04:00 +9°C° 0 mm 2 mps 654 mmHg 91%
    05:00 +9°C° 0 mm 2 mps 654 mmHg 92%
    06:00 +12°C° 0 mm 2 mps 654 mmHg 84%
    07:00 +13°C° 0 mm 2 mps 655 mmHg 76%
    08:00 +15°C° 0 mm 2 mps 656 mmHg 68%
    09:00 +18°C° 0 mm 2 mps 657 mmHg 57%
    10:00 +20°C° 0 mm 2 mps 657 mmHg 46%
    11:00 +24°C° 0 mm 1 mps 658 mmHg 34%
    12:00 +25°C° 0 mm 1 mps 657 mmHg 31%
    13:00 +26°C° 0 mm 2 mps 657 mmHg 27%
    14:00 +26°C° 0 mm 2 mps 656 mmHg 23%
    15:00 +25°C° 0 mm 2 mps 655 mmHg 25%
    16:00 +24°C° 0 mm 2 mps 655 mmHg 27%
    17:00 +23°C° 0 mm 2 mps 655 mmHg 29%
    18:00 +20°C° 0 mm 2 mps 655 mmHg 35%
    19:00 +18°C° 0 mm 3 mps 655 mmHg 41%
    20:00 +16°C° 0 mm 3 mps 654 mmHg 48%
    21:00 +14°C° 0 mm 3 mps 655 mmHg 51%
    22:00 +13°C° 0 mm 3 mps 655 mmHg 54%
    23:00 +13°C° 0 mm 3 mps 655 mmHg 58%

    Day after tomorrow, 28 May, Tuesday

    Time Temperature Precipitation Wind Pressure Humidity
    00:00 +13°C° 0 mm 2 mps 654 mmHg 65%
    01:00 +12°C° 0 mm 2 mps 654 mmHg 72%
    02:00 +10°C° 0 mm 2 mps 654 mmHg 79%
    03:00 +10°C° 0 mm 2 mps 653 mmHg 81%
    04:00 +10°C° 0 mm 2 mps 653 mmHg 84%
    05:00 +10°C° 0 mm 2 mps 653 mmHg 86%
    06:00 +12°C° 0 mm 2 mps 654 mmHg 78%
    07:00 +14°C° 0 mm 2 mps 655 mmHg 71%
    08:00 +15°C° 0 mm 2 mps 656 mmHg 63%
    09:00 +19°C° 0 mm 1 mps 657 mmHg 53%
    10:00 +23°C° 0 mm 1 mps 657 mmHg 42%
    11:00 +26°C° 0 mm 1 mps 658 mmHg 32%
    12:00 +26°C° 0 mm 1 mps 657 mmHg 29%
    13:00 +27°C° 0 mm 1 mps 656 mmHg 26%
    14:00 +28°C° 0 mm 1 mps 656 mmHg 23%
    15:00 +26°C° 0 mm 1 mps 655 mmHg 26%
    16:00 +25°C° 0 mm 1 mps 655 mmHg 28%
    17:00 +24°C° 0 mm 1 mps 654 mmHg 30%
    18:00 +20°C° 0 mm 2 mps 654 mmHg 37%
    19:00 +18°C° 0 mm 2 mps 654 mmHg 44%
    20:00 +16°C° 0 mm 2 mps 654 mmHg 50%
    21:00 +15°C° 0 mm 2 mps 654 mmHg 53%
    22:00 +15°C° 0 mm 2 mps 654 mmHg 56%
    23:00 +14°C° 0 mm 2 mps 654 mmHg 58%

    29 May, Wednesday

    Time Temperature Precipitation Wind Pressure Humidity
    00:00 +13°C° 0 mm 2 mps 654 mmHg 61%
    01:00 +13°C° 0 mm 1 mps 654 mmHg 63%
    02:00 +12°C° 0 mm 1 mps 653 mmHg 66%
    03:00 +12°C° 0 mm 1 mps 653 mmHg 68%
    04:00 +12°C° 0 mm 1 mps 653 mmHg 71%
    05:00 +11°C° 0 mm 1 mps 653 mmHg 74%
    06:00 +13°C° 0 mm 1 mps 654 mmHg 68%
    07:00 +15°C° 0 mm 1 mps 655 mmHg 63%
    08:00 +16°C° 0 mm 1 mps 656 mmHg 57%
    09:00 +20°C° 0 mm 1 mps 656 mmHg 48%
    10:00 +23°C° 0 mm 1 mps 657 mmHg 39%
    11:00 +26°C° 0 mm 1 mps 658 mmHg 31%
    12:00 +27°C° 0 mm 1 mps 657 mmHg 29%
    13:00 +27°C° 0 mm 1 mps 656 mmHg 27%
    14:00 +27°C° 0 mm 1 mps 655 mmHg 26%
    15:00 +26°C° 0 mm 2 mps 655 mmHg 29%
    16:00 +24°C° 0 mm 2 mps 655 mmHg 32%
    17:00 +22°C° 0 mm 3 mps 654 mmHg 35%
    18:00 +21°C° 0 mm 3 mps 654 mmHg 40%
    19:00 +20°C° 0 mm 3 mps 655 mmHg 45%
    20:00 +18°C° 0 mm 3 mps 655 mmHg 50%
    21:00 +17°C° 0 mm 3 mps 655 mmHg 55%
    22:00 +16°C° 0 mm 3 mps 655 mmHg 60%
    23:00 +14°C° 0 mm 3 mps 654 mmHg 65%

    30 May, Thursday

    Time Temperature Precipitation Wind Pressure Humidity
    00:00 +14°C° 0 mm 2 mps 654 mmHg 69%
    01:00 +13°C° 0 mm 2 mps 654 mmHg 73%
    02:00 +12°C° 0 mm 2 mps 653 mmHg 76%
    03:00 +12°C° 0 mm 2 mps 653 mmHg 79%
    04:00 +12°C° 0 mm 2 mps 653 mmHg 82%
    05:00 +10°C° 0 mm 2 mps 653 mmHg 84%
    06:00 +13°C° 0 mm 2 mps 654 mmHg 78%
    07:00 +14°C° 0 mm 2 mps 655 mmHg 72%
    08:00 +16°C° 0 mm 2 mps 656 mmHg 66%
    09:00 +20°C° 0 mm 1 mps 656 mmHg 56%
    10:00 +23°C° 0 mm 1 mps 657 mmHg 45%
    11:00 +25°C° 0 mm 0 mps 658 mmHg 34%
    12:00 +24°C° 0 mm 0 mps 657 mmHg 35%
    13:00 +25°C° 0 mm 1 mps 655 mmHg 36%
    14:00 +24°C° 0 mm 1 mps 654 mmHg 37%
    15:00 +23°C° 0 mm 1 mps 654 mmHg 38%
    16:00 +21°C° 0 mm 0 mps 654 mmHg 40%
    17:00 +20°C° 0 mm 0 mps 654 mmHg 41%
    18:00 +21°C° 0 mm 1 mps 654 mmHg 43%
    19:00 +21°C° 0 mm 1 mps 654 mmHg 44%
    20:00 +20°C° 0 mm 1 mps 655 mmHg 46%
    21:00 +19°C° 0 mm 1 mps 654 mmHg 50%
    22:00 +17°C° 0 mm 2 mps 654 mmHg 54%
    23:00 +16°C° 0 mm 2 mps 654 mmHg 58%

    31 May, Friday

    Time Temperature Precipitation Wind Pressure Humidity
    00:00 +15°C° 0 mm 2 mps 653 mmHg 62%
    01:00 +14°C° 0 mm 2 mps 653 mmHg 66%
    02:00 +13°C° 0 mm 2 mps 652 mmHg 71%
    03:00 +13°C° 0 mm 2 mps 653 mmHg 71%
    04:00 +13°C° 0 mm 2 mps 653 mmHg 71%
    05:00 +12°C° 0 mm 2 mps 653 mmHg 72%
    06:00 +14°C° 0 mm 2 mps 653 mmHg 68%
    07:00 +15°C° 0 mm 2 mps 654 mmHg 64%
    08:00 +17°C° 0 mm 2 mps 655 mmHg 61%
    09:00 +20°C° 0 mm 2 mps 655 mmHg 51%
    10:00 +24°C° 0 mm 1 mps 656 mmHg 42%
    11:00 +26°C° 0 mm 1 mps 656 mmHg 32%
    12:00 +26°C° 0 mm 1 mps 656 mmHg 31%
    13:00 +26°C° 0 mm 1 mps 655 mmHg 29%
    14:00 +26°C° 0 mm 1 mps 654 mmHg 28%
    15:00 +25°C° 0 mm 1 mps 654 mmHg 29%
    16:00 +24°C° 0 mm 1 mps 654 mmHg 31%
    17:00 +21°C° 0 mm 0 mps 653 mmHg 33%
    18:00 +22°C° 0 mm 1 mps 654 mmHg 35%
    19:00 +22°C° 0 mm 1 mps 654 mmHg 37%
    20:00 +21°C° 0 mm 1 mps 654 mmHg 39%
    21:00 +20°C° 0 mm 1 mps 654 mmHg 43%
    22:00 +18°C° 0 mm 2 mps 654 mmHg 46%
    23:00 +17°C° 0 mm 2 mps 654 mmHg 50%
    Show more